This demonstration page uses our WeatherBlox Daily Observations layout. Learn more.

38.80484, -77.04692

Hourly Observations for April 11, 2019

Temp ( °F °C ) Dew Point ( °F °C ) Humidity (%) Winds ( mph kmh ) Pressure ( in mb ) Visibility ( mi km ) Precip ( " mm )
12:52 am 00:52 Mostly Clear 58 14.4 39 3.9 50 50 NE 6 9 30 1016 10 16.0934 0 0
1:52 am 01:52 Partly Cloudy 57 13.9 39 3.9 51 51 NNE 9 15 30.03 1017 10 16.0934 0 0
2:52 am 02:52 Partly Cloudy 55 12.8 38 3.3 53 53 NE 18 30 30.04 1017 10 16.0934 0 0
3:52 am 03:52 Partly Cloudy 53 11.7 35 1.7 51 51 NE 17 28 30.04 1017 10 16.0934 0 0
4:52 am 04:52 Partly Cloudy 51 10.6 33 0.6 50 50 ENE 12 19 30.06 1018 10 16.0934 0 0
5:52 am 05:52 Partly Cloudy 50 10 34 1.1 54 54 ENE 13 20 30.11 1020 10 16.0934 0 0
6:52 am 06:52 Mostly Cloudy 49 9.4 32 0 52 52 NE 15 24 30.13 1020 10 16.0934 0 0
7:52 am 07:52 Mostly Cloudy 50 10 33 0.6 52 52 ENE 13 20 30.17 1022 10 16.0934 0 0
8:52 am 08:52 Mostly Cloudy 51 10.6 33 0.6 50 50 E 13 20 30.18 1022 10 16.0934 0 0
9:52 am 09:52 Mostly Cloudy 53 11.7 34 1.1 48 48 E 9 15 30.18 1022 10 16.0934 0 0
10:52 am 10:52 Cloudy 55 12.8 34 1.1 45 45 E 9 15 30.19 1023 10 16.0934 0 0
11:52 am 11:52 Cloudy 58 14.4 38 3.3 48 48 SE 8 13 30.19 1022 10 16.0934 0 0
12:52 pm 12:52 Cloudy 59 15 39 3.9 48 48 ESE 10 17 30.18 1022 10 16.0934 0 0
1:52 pm 13:52 Cloudy 59 15 41 5 51 51 ESE 8 13 30.17 1022 10 16.0934 0 0
2:52 pm 14:52 Cloudy 60 15.6 41 5 50 50 ESE 13 20 30.16 1021 10 16.0934 0 0
3:52 pm 15:52 Cloudy 60 15.6 42 5.6 52 52 ESE 13 20 30.15 1021 10 16.0934 0 0
4:52 pm 16:52 Cloudy 61 16.1 42 5.6 50 50 ESE 10 17 30.13 1020 10 16.0934 0 0
5:52 pm 17:52 Cloudy 61 16.1 42 5.6 50 50 E 9 15 30.14 1021 10 16.0934 0 0
6:52 pm 18:52 Cloudy 61 16.1 42 5.6 50 50 E 9 15 30.15 1021 10 16.0934 0 0
7:52 pm 19:52 Cloudy 59 15 43 6.1 56 56 E 10 17 30.16 1022 10 16.0934 0 0
8:52 pm 20:52 Cloudy 57 13.9 44 6.7 62 62 ENE 13 20 30.18 1022 10 16.0934 0 0
9:52 pm 21:52 Cloudy 54 12.2 44 6.7 69 69 E 15 24 30.2 1023 10 16.0934 0 0
10:52 pm 22:52 Mostly Cloudy 52 11.1 43 6.1 72 72 E 9 15 30.2 1023 10 16.0934 0 0
11:52 pm 23:52 Cloudy 51 10.6 43 6.1 74 74 E 8 13 30.2 1023 10 16.0934 0 0

Powered by AerisWeather